Other Public Products
Issued by NWS Grand Forks, ND

Home | Current Version | Previous Version | Graphics & Text | Print | Product List | Glossary On
Versions: 1 2 3 4 5 6 7 8 9 10 11 12 13 14 15 16 17 18 19 20 21 22 23 24 25 26 27 28 29 30 31 32 33 34 35 36 37 38 39 40 41 42 43 44 45 46 47 48 49 50
000
FPUS83 KFGF 170610
OPUFGF
PRAIRIE TO PINES WEATHER ROUNDUP
NATIONAL WEATHER SERVICE EASTERN NORTH DAKOTA/GRAND FORKS ND
100 AM CDT THU APR 17 2014

 **SATELLITE DATA USED TO AUGMENT SKY COVER AT AUTOMATED STATIONS**
 *****  WEATHER ACROSS EASTERN NORTH DAKOTA  *****

CITY           SKY/WX    TMP DP  RH WIND       PRES   REMARKS
GRAND FORKS    FAIR      24  19  81 N7        30.27R WCI  16
6HR MIN TEMP:  24; 6HR MAX TEMP:  38;

GRAND FORKS AF FAIR      24  17  73 N10       30.32R WCI  13
GRAND CITY NWS   N/A     27 N/A N/A N7          N/A  WCI  19
BUXTON         NOT AVBL
DEVILS LAKE    FAIR      21  10  63 NE8       30.31S WCI  12
6HR MIN TEMP:  21; 6HR MAX TEMP:  36;

FARGO          FAIR      29  17  61 N10       30.25R WCI  20
6HR MIN TEMP:  29; 6HR MAX TEMP:  38;

WAHPETON ARPT  FAIR      28  19  69 N7        30.23R WCI  21
$$

 *****  WEATHER ACROSS CENTRAL AND WESTERN NORTH DAKOTA  *****

CITY           SKY/WX    TMP DP  RH WIND       PRES   REMARKS
JAMESTOWN      FAIR      25  19  78 N10       30.26R WCI  15
6HR MIN TEMP:  25; 6HR MAX TEMP:  38;

BISMARCK       CLOUDY    29  16  58 E6        30.28R WCI  23
6HR MIN TEMP:  28; 6HR MAX TEMP:  37;

MINOT          CLOUDY    23  14  68 E5        30.31R WCI  17
6HR MIN TEMP:  23; 6HR MAX TEMP:  33;

MINOT AFB      CLOUDY    24  16  70 E9        30.31R WCI  15
6HR MIN TEMP:  23; 6HR MAX TEMP:  33;

GARRISON         N/A     27  16  63 E14       30.28R WCI  16
6HR MIN TEMP:  27; 6HR MAX TEMP:  33;

WILLISTON        N/A    N/A N/A N/A MISG      30.27S
DICKINSON      CLOUDY    27  20  75 E6        30.20R WCI  20
6HR MIN TEMP:  27; 6HR MAX TEMP:  29;

HETTINGER      CLOUDY    28  21  75 E8        30.20S WCI  20
6HR MIN TEMP:  25; 6HR MAX TEMP:  30;

$$

 *****  OTHER OBSERVATIONS NORTHEAST NORTH DAKOTA  *****

CITY           SKY/WX    TMP DP  RH WIND       PRES   REMARKS
WALHALLA       FAIR      23  18  80 NW7       30.37R WCI  15
LANGDON        FAIR      21  12  68 NE10      30.31S WCI  10
CAVALIER       FAIR      25  14  63 N10       30.35S WCI  15
GRAFTON        FAIR      25  14  63 N10       30.33S WCI  15
CANDO          FAIR      19  14  79 N8        30.34R WCI   9
FORT TOTTEN      N/A     22  12  64 NE5       29.95  WCI  16
ROLLA          NOT AVBL
RUGBY          FAIR      19  14  79 NE8       30.32R WCI   9
 ***** THE ABOVE OBSERVATIONS ARE NON NWS ARE NOT QUALITY
        CONTROLLED AND MAY MIS-REPORT RAIN FOR SNOW...
$$

 *****  OTHER OBSERVATIONS SOUTHEAST NORTH DAKOTA *****

CITY           SKY/WX    TMP DP  RH WIND       PRES   REMARKS
COOPERSTOWN    FAIR      27  21  80 N13       30.28R WCI  16
VALLEY CITY    NOT AVBL
OAKES          NOT AVBL
GWINNER        NOT AVBL
BUFFALO        NOT AVBL
WYNDMERE       NOT AVBL
 ***** THE ABOVE OBSERVATIONS ARE NON NWS ARE NOT QUALITY
       CONTROLLED AND MAY MIS-REPORT RAIN FOR SNOW...
$$

  *****  WEATHER ACROSS NORTHERN MINNESOTA  *****

CITY           SKY/WX    TMP DP  RH WIND       PRES   REMARKS
FLAG ISLAND    FAIR      23   7  50 N6        30.31S WCI  16
WARROAD        FAIR      25   7  46 N7        30.31R WCI  17
ROSEAU         FAIR      25  12  58 NE5       30.31R WCI  19
HALLOCK        CLOUDY    27  12  54 NE10      30.33R WCI  17
THF RVR FALLS  FAIR      28   9  43 NE9       30.28R WCI  20
6HR MIN TEMP:  28; 6HR MAX TEMP:  37;

HALSTAD          N/A     27  16  62 N10         N/A  WCI  17
FOSSTON        FAIR      25  10  54 NE9       30.24S WCI  15
BAUDETTE       FAIR      26   8  46 NE8       30.28R WCI  18
6HR MIN TEMP:  26; 6HR MAX TEMP:  36;

WASKISH        FAIR      25  10  54 NE5       30.25S WCI  19
CROOKSTON      FAIR      25  18  74 N10       30.30R WCI  15
$$
  *****  WEATHER ACROSS CENTRAL AND WEST MINNESOTA  *****

CITY           SKY/WX    TMP DP  RH WIND       PRES   REMARKS
BEMIDJI        FAIR      23  12  61 N5        30.22R WCI  17
PARK RAPIDS    FAIR      25  19  78 N8        30.18S WCI  16
6HR MIN TEMP:  24; 6HR MAX TEMP:  31;

WADENA         FAIR      23  18  80 N9        30.17R WCI  13
DETROIT LAKES  FAIR      27  21  80 N6        30.22R WCI  20
MOORHEAD       NOT AVBL
FERGUS FALLS   FAIR      27  18  69 N6        30.20R WCI  20
ELBOW LAKE     FAIR      26  21  82 NE9       30.18R WCI  16
6HR MIN TEMP:  25; 6HR MAX TEMP:  31;

MORRIS MN      FAIR      25  18  74 N12       30.16R WCI  14
STAPLES        FAIR      21  18  86 N7        30.16S WCI  13
WHEATON        FAIR      27  21  80 NW6       30.23R WCI  20
$$
  *****  WEATHER ELSEWHERE ACROSS MINNESOTA  *****

CITY           SKY/WX    TMP DP  RH WIND       PRES   REMARKS
DULUTH         SNOW      27  23  85 NE16G28   30.11F VSB 1/2 WCI  15
6HR MIN TEMP:  26; 6HR MAX TEMP:  27; 6HR PCP:  0.10;

INTRNTL FALLS  MOCLDY    26   8  46 NE6       30.26S WCI  19
6HR MIN TEMP:  26; 6HR MAX TEMP:  36;

ELY            LGT SNOW  23  19  86 NE6       30.20F WCI  16
CLOQUET        LGT SNOW  27  25  93 NE15G23   30.11S WCI  15
BRAINERD       CLOUDY    30  20  66 N15       30.15R WCI  19
6HR MIN TEMP:  30; 6HR MAX TEMP:  32; 6HR PCP: TRACE;

HIBBING        LGT SNOW  26  20  77 NE8       30.18S WCI  18
6HR MIN TEMP:  26; 6HR MAX TEMP:  27; 6HR PCP: TRACE;

ALEXANDRIA     FAIR      24  19  81 N13       30.15R WCI  12
6HR MIN TEMP:  24; 6HR MAX TEMP:  29;

SAINT CLOUD    CLOUDY    29  23  78 N13G21    30.07R WCI  19
6HR MIN TEMP:  29; 6HR MAX TEMP:  29; 6HR PCP:  0.05;

MINNEAPOLIS    LGT SNOW  28  28 100 N17       29.97R FOG     WCI  16
6HR MIN TEMP:  28; 6HR MAX TEMP:  33; 6HR PCP:  0.54;

$$

  *****  WEATHER ACROSS SOUTH DAKOTA  *****

CITY           SKY/WX    TMP DP  RH WIND       PRES   REMARKS
SIOUX FALLS    CLOUDY    28  23  81 N18       30.15R WCI  15
6HR MIN TEMP:  28; 6HR MAX TEMP:  30;

BROOKINGS      NOT AVBL
WATERTOWN      FAIR      19  16  88 N10       30.16R WCI   7
6HR MIN TEMP:  19; 6HR MAX TEMP:  28;

HURON          CLEAR     21  19  92 NW6       30.23R WCI  13
6HR MIN TEMP:  21; 6HR MAX TEMP:  33;

SISSETON         N/A     23  19  85 N12       30.22R WCI  12
ABERDEEN       CLEAR     21  18  88 N8        30.24R WCI  11
6HR MIN TEMP:  20; 6HR MAX TEMP:  33;

MITCHELL       CLOUDY    30  23  75 N10       30.23R WCI  21
PIERRE         PTCLDY    25  19  78 CALM      30.24R
6HR MIN TEMP:  22; 6HR MAX TEMP:  36;

MOBRIDGE       PTCLDY    27  17  66 NE9       30.22R WCI  18
RAPID CITY     CLOUDY    31  24  75 S6        30.17S
6HR MIN TEMP:  31; 6HR MAX TEMP:  40; 6HR PCP: TRACE;

$$

  *****  SOME WEATHER IN NEARBY STATES *****

CITY           SKY/WX    TMP DP  RH WIND       PRES   REMARKS
GLASGOW MT     CLEAR     25  19  78 E16       30.15F WCI  12
6HR MIN TEMP:  25; 6HR MAX TEMP:  36;

GREAT FALLS MT PTCLDY    32  30  92 S8        29.94F WCI  25
6HR MIN TEMP:  31; 6HR MAX TEMP:  42;

CHEYENNE WY    CLOUDY    35  28  75 SE10      30.08R
6HR MIN TEMP:  34; 6HR MAX TEMP:  43;

SCOTTSBLUFF NE CLOUDY    36  30  79 E12       30.15R
6HR MIN TEMP:  33; 6HR MAX TEMP:  52; 6HR PCP: TRACE;

OMAHA NE       CLOUDY    36  28  73 NW17      30.13R
6HR MIN TEMP:  36; 6HR MAX TEMP:  43;

DES MOINES IA  CLOUDY    39  33  79 NW15G24   30.02R
6HR MIN TEMP:  39; 6HR MAX TEMP:  63; 6HR PCP: TRACE;

DAVENPORT IA   FAIR      47  28  47 S24G33    30.00F
6HR MIN TEMP:  47; 6HR MAX TEMP:  53;

CHICAGO IL     MOCLDY    43  23  45 SE14      30.15F
6HR MIN TEMP:  43; 6HR MAX TEMP:  50;

EAU CLAIRE WI  RAIN      38  35  89 E12       29.94F
6HR MIN TEMP:  38; 6HR MAX TEMP:  49; 6HR PCP:  0.14;

LA CROSSE WI   CLOUDY    50  29  44 SE18      29.90R
6HR MIN TEMP:  50; 6HR MAX TEMP:  53;

$$

  *****  SOME NATIONAL WEATHER *****

CITY           SKY/WX    TMP DP  RH WIND       PRES   REMARKS
LA GUARDIA NY  FAIR      39  18  42 NE9       30.61R
6HR MIN TEMP:  38; 6HR MAX TEMP:  45;




USA.gov is the U.S. government's official web portal to all federal, state and local government web resources and services.